{"data":{"norad_id":58424,"intl_designator":"2023-180Y","name":"STARLINK-30908","alt_names":[],"object_type":"PAYLOAD","status":"ACTIVE","operator":null,"country":"US","launch_date":"2023-11-22","launch_site_code":"AFETR","launch_vehicle":null,"mission":null,"orbit_class":"UNKNOWN","rcs_meters":null,"size_class":null,"mass_kg":null,"dimensions":null,"purposes":["comms"],"wikipedia_slug":null,"has_3d_model":false,"image_url":null,"decayed_at":null,"tle_current":{"epoch":"2026-09-20T15:35:16.675584Z","epoch_age_seconds":133866,"freshness":"FRESH","line1":"1 58424U 23180Y   26263.64949856  .00000591  00000+0  31024-4 0  9995","line2":"2 58424  43.0025  31.3304 0001982 274.3395  85.7231 15.27575612157444","mean_motion":15.27575612,"eccentricity":0.0001982,"inclination_deg":43.0025,"raan_deg":31.3304,"arg_perigee_deg":274.3395,"mean_anomaly_deg":85.7231,"bstar":3.1024e-5,"rev_number":15744,"period_min":94.267019497297,"perigee_km":481.70234563324,"apogee_km":484.42212501012,"semimajor_km":6861.1992353217,"source":"CELESTRAK","updated_at":"2026-09-21T09:00:33.874825Z"}}}